Location: Ostrava
(49.8330°N, 18.2830°E)
Time: 08:39:54
(UTC+02:00)

Lacrosse 5 - Visible Passes

Search period start: 28 July 2016 00:00
Search period end: 07 August 2016 00:00
Orbit: 716 x 722 km, 57.0° (Epoch: 21 July)

Date Brightness Start Highest point End Pass type
(mag) Time Alt. Az. Time Alt. Az. Time Alt. Az.
28 Jul 2.3 01:20:14 16° WSW 01:24:19 63° NNW 01:29:24 10° NE visible
28 Jul 3.3 03:03:15 10° WNW 03:08:00 37° N 03:12:44 10° ENE visible
28 Jul 2.9 22:48:42 24° SE 22:48:42 24° SE 22:52:35 10° ENE visible
29 Jul 1.8 00:27:48 23° WSW 00:31:01 87° NW 00:36:08 10° ENE visible
29 Jul 3.1 02:09:39 10° W 02:14:29 40° NNW 02:19:18 10° ENE visible
29 Jul 3.3 03:53:31 10° WNW 03:58:21 40° NNE 04:03:09 10° E visible
29 Jul 3.5 21:55:45 14° ESE 21:55:45 14° ESE 21:58:19 10° E visible
29 Jul 1.8 23:34:48 24° SSW 23:37:49 63° SE 23:42:52 10° ENE visible
30 Jul 2.8 01:16:03 10° W 01:21:00 48° NNW 01:25:57 10° NE visible
30 Jul 3.4 03:00:04 10° WNW 03:04:49 37° N 03:09:33 10° ENE visible
30 Jul 2.3 22:40:03 10° SSW 22:44:46 39° SE 22:49:29 10° ENE visible
31 Jul 2.3 00:22:32 10° WSW 00:27:36 63° NNW 00:32:40 10° NE visible
31 Jul 3.4 02:06:32 10° WNW 02:11:16 37° N 02:16:01 10° ENE visible
31 Jul 3.0 03:50:08 10° NW 03:55:06 48° NNE 04:00:02 10° E visible
31 Jul 2.9 21:47:48 10° S 21:51:49 24° SE 21:55:51 10° ENE visible
31 Jul 1.8 23:29:11 10° SW 23:34:18 88° NW 23:39:26 10° ENE visible
01 Aug 3.2 01:12:55 10° W 01:17:44 40° NNW 01:22:35 10° ENE visible
01 Aug 3.3 02:56:48 10° WNW 03:01:38 40° NNE 03:06:26 10° E visible
01 Aug 1.8 22:36:06 10° SW 22:41:07 62° SE 22:46:10 10° ENE visible
02 Aug 2.8 00:19:20 10° W 00:24:16 48° NNW 00:29:14 10° NE visible
02 Aug 3.4 02:03:21 10° WNW 02:08:06 37° N 02:12:50 10° ENE visible
02 Aug 2.4 03:46:42 10° NW 03:51:47 62° NNE 03:56:50 10° ESE visible
02 Aug 2.3 21:43:21 10° SSW 21:48:03 39° SE 21:52:46 10° ENE visible
02 Aug 2.3 23:25:49 10° WSW 23:30:53 64° NNW 23:35:58 10° NE visible
03 Aug 3.4 01:09:48 10° WNW 01:14:33 37° N 01:19:18 10° ENE visible
03 Aug 2.9 02:53:25 10° NW 02:58:23 48° NNE 03:03:19 10° E visible
03 Aug 1.9 04:36:30 10° WNW 04:41:33 64° SW 04:46:34 10° SE visible
03 Aug 1.8 22:32:28 10° SW 22:37:35 89° NNW 22:42:43 10° ENE visible
04 Aug 3.2 00:16:12 10° W 00:21:01 41° NNW 00:25:52 10° ENE visible
04 Aug 3.2 02:00:05 10° WNW 02:04:54 40° N 02:09:43 10° E visible
04 Aug 1.9 03:43:14 10° WNW 03:48:22 86° NNE 03:53:28 10° ESE visible
04 Aug 1.9 21:39:24 10° SW 21:44:24 61° SE 21:49:27 10° ENE visible
04 Aug 2.8 23:22:36 10° W 23:27:34 49° NNW 23:32:31 10° NE visible
05 Aug 3.4 01:06:38 10° WNW 01:11:22 37° N 01:16:07 10° ENE visible
05 Aug 2.4 02:49:59 10° NW 02:55:04 62° NNE 03:00:07 10° ESE visible
05 Aug 2.3 04:33:09 10° WNW 04:37:55 40° SW 04:42:38 10° SSE visible
05 Aug 2.3 22:29:06 10° WSW 22:34:10 64° NNW 22:39:15 10° NE visible
06 Aug 3.4 00:13:05 10° WNW 00:17:50 37° N 00:22:35 10° ENE visible
06 Aug 2.9 01:56:42 10° NW 02:01:40 48° NNE 02:06:35 10° E visible
06 Aug 1.8 03:39:47 10° WNW 03:44:51 64° SW 03:49:52 10° SE visible
06 Aug 1.9 21:35:46 10° SW 21:40:52 89° NW 21:46:00 10° ENE visible
06 Aug 3.2 23:19:28 10° W 23:24:19 41° NNW 23:29:09 10° ENE visible
